Location: Newark
(44.4156°N, 12.1972°E)
Time: 15:44:05
(UTC+00:00)

STARLINK-1087 - Pass Details

Date: 31 January 2020
Orbit: 348 x 351 km, 53.0° (Epoch: 28 February)

Event Time Altitude Azimuth Distance (km) Brightness Sun altitude
Rises 18:37:24 0° 293° (WNW) 2,164 7.7 -24.9°
Reaches altitude 10° 18:39:45 10° 275° (W) 1,316 6.6 -25.4°
Enters shadow 18:41:13 18° 247° (WSW) 957 5.6 -25.6°
